Location: Kaarina
(60.4167°N, 22.4167°E)
Time: 23:17:12
(UTC+03:00)

NOSS 2-2 (D) - Pass Details

Date: 24 August 2019
Orbit: 490 x 1719 km, 63.3° (Epoch: 17 October)

Event Time Altitude Azimuth Distance (km) Brightness Sun altitude
Rises 23:32:57 0° 291° (WNW) 2,899 7.9 -14.7°
Reaches altitude 10° 23:34:58 10° 293° (WNW) 2,105 7.1 -14.9°
Maximum altitude 23:39:44 78° 20° (NNE) 838 4.2 -15.2°
Drops below altitude 10° 23:46:16 10° 107° (ESE) 2,849 6.5 -15.5°
Enters shadow 23:46:30 - 107° (ESE) 2,936 6.6 -15.5°
